Regional Weather Roundup
Issued by NWS

Home | Current Version | Previous Version | Text Only | Print | Product List | Glossary On
Versions: 1 2 3 4 5 6 7 8 9 10 11 12 13 14 15 16 17 18 19 20 21 22 23 24 25 26 27
000
ASUS45 KREV 241510
RWRNV
NEVADA REGIONAL WEATHER ROUNDUP
NATIONAL WEATHER SERVICE RENO NV
800 AM PDT WED MAY 24 2017

NOTE: "FAIR" INDICATES FEW OR NO CLOUDS BELOW 12,000 FEET WITH NO
SIGNIFICANT WEATHER AND/OR OBSTRUCTIONS TO VISIBILITY.

NVZ001-003-004-241600-
WESTERN NEVADA

CITY           SKY/WX    TMP DP  RH WIND       PRES   REMARKS
RENO           MOSUNNY   65  40  39 CALM      29.95F
CARSON CITY    FAIR      66  39  37 CALM      29.97F
MINDEN         FAIR      61  46  59 CALM      29.97F
PYRAMID LAKE     N/A     68 N/A N/A N3          N/A
FALLON         MOSUNNY   73  37  27 W8        29.90F
LOVELOCK       CLOUDY    71  43  36 E5        29.89F
HAWTHORNE      SUNNY     72  39  30 CALM      29.92F
$$

NVZ002-CAZ072-073-241600-
NORTHERN AND CENTRAL SIERRA

CITY           SKY/WX    TMP DP  RH WIND       PRES   REMARKS
S. LAKE TAHOE  SUNNY     55  42  61 NE9       30.05F
TRUCKEE        SUNNY     46  39  76 CALM      30.07S
SQUAW VLY 8000   N/A     54  34  47 SW5         N/A
SUSANVILLE     SUNNY     64  43  45 NW6       29.94F
MAMMOTH LAKES  FAIR      58  35  42 SE7       30.14F
BRIDGEPORT     FAIR      57  35  43 CALM      30.08F
$$

NVZ030-031-036-241600-
NORTHERN NEVADA

CITY           SKY/WX    TMP DP  RH WIND       PRES   REMARKS
ELKO           MOSUNNY   59  40  49 CALM      29.93F
WINNEMUCCA     SUNNY     68  39  34 S3        29.90F
WENDOVER       SUNNY     71  39  31 E6        29.84F
$$

NVZ035-037-241600-
CENTRAL NEVADA

CITY           SKY/WX    TMP DP  RH WIND       PRES   REMARKS
ELY            SUNNY     60  34  37 S12       30.02F
EUREKA           N/A     63  31  30 S8        29.99F
$$

NVZ013-014-241600-
SOUTH CENTRAL NEVADA

CITY           SKY/WX    TMP DP  RH WIND       PRES   REMARKS
TONOPAH        SUNNY     66  28  24 NE5       30.00F
$$

NVZ017-020-022-241600-
SOUTHERN NEVADA

CITY           SKY/WX    TMP DP  RH WIND       PRES   REMARKS
LAS VEGAS      SUNNY     86  25  11 N6        29.77S
N. LAS VEGAS   SUNNY     83  28  13 N3        29.77S
NELLIS AFB     SUNNY     78  29  17 CALM      29.76S
HENDERSON      SUNNY     87  28  12 SW17      29.80F
MERCURY        SUNNY     82  31  15 NW3       29.84F
$$




USA.gov is the U.S. government's official web portal to all federal, state and local government web resources and services.